Powrót do katalogu

ONEWEB-0641

AktywnyŁącznośćPO
NORAD 55805·PAYLOAD·🇬🇧 United Kingdom

Wystrzelony Mar 9, 2023 z Cape Canaveral Space Force Station

Loading…

Następne Przeloty (najbliższe 24 godziny)

TLE

ŚwieżeSource: CelesTrak SupGP

Epoka: Sep 14, 2026, 14:10 UTC

1 55805C 23029K   26257.59081435  .00000062  00000+0  15572-3 0  2573
2 55805  87.9107 287.1593 0002036  91.5150  22.5734 13.19724941    19

Śledź ONEWEB-0641 w czasie rzeczywistym z AllMySat

Download on the App Store